Regional Weather Roundup
Issued by NWS

Home | Current Version | Previous Version | Graphics & Text | Print | Product List | Glossary On
Versions: 1 2 3 4 5 6 7 8 9 10 11 12 13 14 15 16 17 18 19 20 21 22 23 24 25 26 27 28 29 30 31 32 33 34 35 36 37 38 39 40 41 42 43 44 45 46 47 48 49 50
000
ASUS43 KFSD 170710
RWRSD

WEATHER ROUNDUP FOR SOUTH DAKOTA
NATIONAL WEATHER SERVICE SIOUX FALLS SD
100 AM CST FRI NOV 17 2017

NOTE: "FAIR" INDICATES FEW OR NO CLOUDS BELOW 12,000 FEET WITH NO
SIGNIFICANT WEATHER AND/OR OBSTRUCTIONS TO VISIBILITY.


SDZ001>005-009-010-012>017-170800-
NORTHWEST AND NORTH CENTRAL SOUTH DAKOTA

CITY           SKY/WX    TMP DP  RH WIND       PRES   REMARKS
BUFFALO          N/A     37  29  72 NW8       29.56R
FAITH            N/A     39  28  64 N14       29.59R
MOBRIDGE       CLOUDY    38  28  67 N12       29.54R
$$

SDZ012>016-024>037-041>051-057-063-072>074-170800-
SOUTHWEST AND SOUTH CENTRAL SOUTH DAKOTA

CITY           SKY/WX    TMP DP  RH WIND       PRES   REMARKS
RAPID CTY ARPT PTCLDY    45  28  51 N17       29.64R
PIERRE         CLOUDY    47  34  60 NW17      29.49R
CUSTER         CLOUDY    48  30  49 CALM      29.64R
ELLSWORTH AFB  CLOUDY    45  29  52 N15       29.64R
PHILIP         PTCLDY    44  30  57 N20G26    29.57R
PINE RIDGE     CLEAR     36  27  69 CALM      29.59F
SPEARFISH      FAIR      43  28  56 NW8       29.68R
WINNER         FAIR      52  36  54 SW18G29   29.52S
$$

SDZ004>011-016>023-039-040-170800-
NORTHEAST SOUTH DAKOTA

CITY           SKY/WX    TMP DP  RH WIND       PRES   REMARKS
ABERDEEN       CLOUDY    41  31  67 S13       29.53R
WATERTOWN      CLOUDY    37  29  72 S20G28    29.55F
BROOKINGS      CLOUDY    37  27  67 S24G32    29.61F
SISSETON         N/A     34  28  79 S17       29.57R WCI  23
$$

SDZ017-020-022-023-036>040-048>070-170800-
SOUTHEAST SOUTH DAKOTA

CITY           SKY/WX    TMP DP  RH WIND       PRES   REMARKS
SIOUX FALLS    CLOUDY    41  29  62 S15G23    29.68F
HURON          CLOUDY    43  31  62 S20G29    29.53F
CHAMBERLAIN    CLOUDY    53  37  56 S13       29.50F
MITCHELL       CLOUDY    43  31  62 S18       29.57F
YANKTON        CLOUDY    40  30  67 SE13      29.65F
$$

ABBREVIATIONS USED IN REMARKS
   TC - TEMPERATURE IN CELSIUS
  WCI - WIND CHILL INDEX
   HX - HEAT INDEX
  VSB - VISIBILITY





USA.gov is the U.S. government's official web portal to all federal, state and local government web resources and services.